contact:dominique.lefevre@mio.osupytheas.fr, maurice.libes@osupytheas.fr, didier.mallarino@osupytheas.fr
Project:EMSO http://www.emso-fr.org/EMSO-France
Depth: 2436.0 m
Title:EMSO Ligure Ouest : Data MII capteur AQUADOPP
Date,Latitude,Longitude,X_East,Y_North,Z_Up,Amplitude_X,Amplitude_Y,Amplitude_Z,Batterie,SoundSpeed,Heading,Pitch,Roll,Pressure,TIS,Speed,Direction
, degrees North, degrees East, m.s-1, m.s-1,m.s-1, 1, 1, 1, Volt, m.s-1, degree, degree, degree, dbar, degree_C, m.s-1, degree
2022-08-05T00:04:03,42.805,6.029,-0.036,-0.012,-0.047,101.0,103.0,101.0,13.4,1505.2,326.3,-0.8,1.8,2471.097,13.28,0.037,251.6
2022-08-05T00:07:03,42.805,6.029,-0.048,0.005,-0.006,102.0,101.0,100.0,13.4,1505.2,320.6,-0.8,1.8,2471.054,13.28,0.048,275.9
2022-08-05T00:10:03,42.805,6.029,-0.069,0.019,-0.024,102.0,102.0,100.0,13.3,1505.2,323.8,-0.8,1.8,2471.054,13.28,0.071,285.4
2022-08-05T00:13:03,42.805,6.029,-0.052,0.008,-0.029,102.0,102.0,101.0,13.3,1505.2,326.9,-0.7,1.8,2471.032,13.28,0.052,278.7
2022-08-05T00:16:03,42.805,6.029,-0.051,-0.006,-0.041,103.0,103.0,99.0,13.4,1505.2,329.8,-0.8,1.8,2471.073,13.28,0.051,263.3
2022-08-05T00:19:03,42.805,6.029,-0.061,0.015,-0.038,103.0,102.0,101.0,13.4,1505.2,327.9,-0.8,1.8,2471.041,13.28,0.062,283.8
2022-08-05T00:22:03,42.805,6.029,-0.055,0.012,-0.063,102.0,101.0,101.0,13.4,1505.2,328.8,-0.7,1.8,2471.049,13.28,0.056,282.3
2022-08-05T00:25:03,42.805,6.029,-0.037,-0.017,-0.055,102.0,103.0,101.0,13.4,1505.2,323.5,-0.7,1.8,2471.026,13.28,0.04,245.3
2022-08-05T00:28:03,42.805,6.029,-0.049,-0.01,-0.025,103.0,102.0,102.0,13.3,1505.2,327.6,-0.7,1.8,2471.062,13.28,0.05,258.5
2022-08-05T00:31:03,42.805,6.029,-0.045,0.043,-0.016,102.0,103.0,100.0,13.4,1505.2,331.3,-0.8,1.8,2471.071,13.28,0.062,313.7
2022-08-05T00:34:03,42.805,6.029,-0.057,0.011,-0.001,103.0,101.0,100.0,13.4,1505.2,327.6,-0.8,1.8,2471.048,13.28,0.058,280.9
2022-08-05T00:37:03,42.805,6.029,-0.067,0.0,-0.037,103.0,102.0,100.0,13.4,1505.2,322.4,-0.7,1.8,2471.047,13.29,0.066,270.0
2022-08-05T00:40:03,42.805,6.029,-0.056,-0.01,-0.029,102.0,102.0,101.0,13.4,1505.2,320.9,-0.8,1.8,2471.047,13.29,0.056,259.9
2022-08-05T00:43:03,42.805,6.029,-0.058,-0.006,-0.015,103.0,102.0,100.0,13.4,1505.2,323.5,-0.8,1.8,2471.04,13.28,0.058,264.1
2022-08-05T00:46:03,42.805,6.029,-0.04,-0.005,-0.068,101.0,104.0,100.0,13.4,1505.2,332.9,-0.8,1.8,2471.046,13.29,0.04,262.9
2022-08-05T00:49:03,42.805,6.029,-0.024,-0.017,-0.021,103.0,102.0,101.0,13.4,1505.2,318.7,-0.8,1.8,2471.027,13.29,0.029,234.7
2022-08-05T00:52:03,42.805,6.029,-0.05,0.004,-0.013,102.0,101.0,102.0,13.4,1505.2,329.3,-0.7,1.8,2471.036,13.29,0.05,274.6
2022-08-05T00:55:03,42.805,6.029,-0.03,0.032,0.011,102.0,102.0,101.0,13.4,1505.2,327.6,-0.8,1.8,2471.013,13.29,0.043,316.9
2022-08-05T00:58:03,42.805,6.029,-0.044,0.005,-0.031,103.0,103.0,101.0,13.4,1505.2,326.4,-0.8,1.8,2471.022,13.29,0.044,276.5
2022-08-05T01:04:03,42.805,6.029,-0.039,-0.002,-0.005,105.0,103.0,102.0,13.4,1505.2,322.5,-0.8,1.8,2471.04,13.28,0.039,267.1
2022-08-05T01:07:03,42.805,6.029,-0.055,-0.009,-0.035,102.0,102.0,101.0,13.4,1505.2,321.0,-0.8,1.8,2471.032,13.28,0.055,260.7
2022-08-05T01:10:03,42.805,6.029,-0.042,0.026,0.011,102.0,101.0,101.0,13.4,1505.2,332.1,-0.8,1.8,2471.07,13.28,0.049,301.8
2022-08-05T01:13:03,42.805,6.029,-0.054,0.011,-0.015,100.0,102.0,102.0,13.4,1505.2,324.5,-0.7,1.8,2471.001,13.28,0.055,281.5
2022-08-05T01:16:03,42.805,6.029,-0.064,0.008,-0.048,102.0,102.0,101.0,13.4,1505.2,330.8,-0.8,1.9,2471.038,13.28,0.064,277.1
2022-08-05T01:19:03,42.805,6.029,-0.053,0.011,-0.02,100.0,103.0,101.0,13.4,1505.2,325.5,-0.8,1.8,2471.062,13.28,0.054,281.7
2022-08-05T01:22:03,42.805,6.029,-0.051,0.017,-0.022,102.0,101.0,100.0,13.4,1505.2,320.0,-0.8,1.8,2471.04,13.28,0.053,288.4
2022-08-05T01:25:03,42.805,6.029,-0.05,0.011,-0.071,102.0,102.0,102.0,13.3,1505.2,331.8,-0.8,1.8,2471.055,13.28,0.051,282.4
2022-08-05T01:28:03,42.805,6.029,-0.06,-0.003,-0.057,102.0,101.0,100.0,13.3,1505.2,328.4,-0.7,1.8,2471.069,13.29,0.06,267.1
2022-08-05T01:31:03,42.805,6.029,-0.061,0.006,-0.055,102.0,102.0,101.0,13.3,1505.2,324.0,-0.8,1.8,2471.025,13.29,0.061,275.6
2022-08-05T01:34:03,42.805,6.029,-0.048,0.012,-0.047,103.0,102.0,101.0,13.4,1505.2,324.1,-0.8,1.8,2470.996,13.29,0.049,284.0
2022-08-05T01:37:03,42.805,6.029,-0.018,0.013,-0.018,102.0,101.0,101.0,13.4,1505.2,328.8,-0.7,1.8,2471.042,13.29,0.022,305.8
2022-08-05T01:40:03,42.805,6.029,-0.018,0.003,-0.038,102.0,102.0,101.0,13.3,1505.2,323.4,-0.7,1.8,2470.998,13.29,0.018,279.5
2022-08-05T01:43:03,42.805,6.029,-0.041,-0.006,-0.041,103.0,102.0,101.0,13.4,1505.2,322.4,-0.7,1.8,2471.006,13.29,0.041,261.7
2022-08-05T01:46:03,42.805,6.029,-0.065,0.0,-0.023,103.0,101.0,101.0,13.3,1505.2,327.3,-0.8,1.8,2471.014,13.29,0.064,270.0
2022-08-05T01:49:03,42.805,6.029,-0.05,0.006,-0.026,103.0,101.0,100.0,13.3,1505.2,319.9,-0.8,1.8,2470.977,13.29,0.05,276.8
2022-08-05T01:52:03,42.805,6.029,-0.05,0.008,-0.052,102.0,104.0,100.0,13.3,1505.2,325.4,-0.7,1.8,2471.038,13.29,0.05,279.1
2022-08-05T01:55:03,42.805,6.029,-0.056,0.016,-0.047,103.0,101.0,102.0,13.4,1505.2,324.8,-0.8,1.8,2471.006,13.29,0.058,285.9
2022-08-05T01:58:03,42.805,6.029,-0.054,0.023,-0.038,102.0,101.0,101.0,13.4,1505.2,332.4,-0.7,1.8,2470.977,13.29,0.058,293.1
2022-08-05T02:04:03,42.805,6.029,-0.033,0.011,-0.014,102.0,102.0,101.0,13.4,1505.2,325.4,-0.7,1.8,2471.02,13.28,0.034,288.4
2022-08-05T02:07:03,42.805,6.029,-0.04,0.026,-0.026,104.0,102.0,100.0,13.4,1505.2,326.6,-0.8,1.8,2471.035,13.28,0.047,303.0
2022-08-05T02:10:03,42.805,6.029,-0.034,0.022,-0.01,102.0,102.0,101.0,13.3,1505.2,327.5,-0.8,1.8,2470.987,13.28,0.04,302.9
2022-08-05T02:13:03,42.805,6.029,-0.053,0.015,0.01,100.0,101.0,102.0,13.4,1505.2,328.2,-0.8,1.8,2471.003,13.28,0.055,285.8
2022-08-05T02:16:03,42.805,6.029,-0.039,0.038,-0.015,101.0,102.0,101.0,13.3,1505.2,333.6,-0.8,1.8,2471.019,13.28,0.054,314.3
2022-08-05T02:19:03,42.805,6.029,-0.036,0.033,-0.028,101.0,102.0,101.0,13.4,1505.2,333.1,-0.8,1.8,2471.044,13.28,0.048,312.5
2022-08-05T02:22:03,42.805,6.029,-0.04,0.01,-0.018,102.0,102.0,100.0,13.4,1505.2,325.6,-0.8,1.8,2470.993,13.29,0.041,284.0
2022-08-05T02:25:03,42.805,6.029,-0.037,0.012,-0.004,102.0,102.0,100.0,13.3,1505.2,328.3,-0.8,1.8,2470.967,13.29,0.038,288.0
2022-08-05T02:28:03,42.805,6.029,-0.054,0.008,-0.021,103.0,101.0,102.0,13.4,1505.2,323.6,-0.7,1.8,2470.971,13.29,0.054,278.4
2022-08-05T02:31:03,42.805,6.029,-0.033,0.002,-0.016,102.0,101.0,101.0,13.4,1505.2,323.8,-0.7,1.8,2470.975,13.29,0.033,273.5
2022-08-05T02:34:03,42.805,6.029,-0.034,0.039,0.009,102.0,102.0,102.0,13.4,1505.2,329.6,-0.8,1.8,2470.994,13.29,0.051,318.9
2022-08-05T02:37:03,42.805,6.029,-0.053,-0.005,-0.019,102.0,102.0,101.0,13.3,1505.2,320.3,-0.8,1.8,2470.985,13.29,0.053,264.6
2022-08-05T02:40:03,42.805,6.029,-0.036,0.019,-0.02,102.0,101.0,101.0,13.4,1505.2,329.3,-0.8,1.9,2470.966,13.29,0.04,297.8
2022-08-05T02:43:03,42.805,6.029,-0.025,0.043,-0.003,101.0,102.0,101.0,13.3,1505.2,332.9,-0.7,1.8,2470.991,13.29,0.049,329.8
2022-08-05T02:46:03,42.805,6.029,-0.031,0.002,-0.042,103.0,102.0,101.0,13.4,1505.2,325.6,-0.7,1.9,2470.981,13.29,0.031,273.7
2022-08-05T02:49:03,42.805,6.029,-0.07,-0.001,-0.035,102.0,103.0,101.0,13.4,1505.2,328.1,-0.8,1.8,2471.026,13.29,0.07,269.2
2022-08-05T02:52:03,42.805,6.029,-0.031,-0.007,-0.016,103.0,102.0,100.0,13.4,1505.2,323.3,-0.8,1.8,2470.977,13.29,0.031,257.3
2022-08-05T02:55:03,42.805,6.029,-0.059,0.025,-0.019,102.0,102.0,102.0,13.3,1505.2,324.2,-0.8,1.8,2471.009,13.29,0.064,293.0
2022-08-05T02:58:03,42.805,6.029,-0.057,0.017,-0.045,103.0,101.0,101.0,13.4,1505.2,322.9,-0.8,1.8,2470.966,13.29,0.059,286.6
2022-08-05T03:04:03,42.805,6.029,-0.048,0.012,-0.027,103.0,101.0,102.0,13.4,1505.2,328.3,-0.7,1.8,2471.011,13.28,0.049,284.0
2022-08-05T03:07:03,42.805,6.029,-0.037,0.0,-0.055,103.0,102.0,100.0,13.4,1505.2,330.1,-0.8,1.8,2470.99,13.28,0.037,270.0
2022-08-05T03:10:03,42.805,6.029,-0.029,0.011,-0.048,102.0,101.0,102.0,13.4,1505.2,327.6,-0.7,1.8,2470.972,13.28,0.031,290.8
2022-08-05T03:13:03,42.805,6.029,-0.039,0.018,0.007,103.0,100.0,101.0,13.4,1505.2,320.0,-0.8,1.8,2470.953,13.28,0.042,294.8
2022-08-05T03:16:03,42.805,6.029,-0.046,0.006,-0.028,101.0,103.0,102.0,13.4,1505.2,324.2,-0.8,1.8,2471.001,13.29,0.046,277.4
2022-08-05T03:19:03,42.805,6.029,-0.049,0.007,-0.037,101.0,102.0,100.0,13.4,1505.2,326.4,-0.8,1.8,2471.007,13.29,0.049,278.1
2022-08-05T03:22:03,42.805,6.029,-0.062,0.011,-0.003,104.0,101.0,101.0,13.4,1505.2,324.2,-0.7,1.8,2470.982,13.29,0.062,280.1
2022-08-05T03:25:03,42.805,6.029,-0.07,0.01,-0.003,101.0,103.0,102.0,13.4,1505.2,322.9,-0.8,1.8,2470.954,13.29,0.07,278.1
2022-08-05T03:28:03,42.805,6.029,-0.053,0.003,-0.024,102.0,103.0,100.0,13.3,1505.2,319.5,-0.8,1.8,2470.986,13.29,0.053,273.2
2022-08-05T03:31:03,42.805,6.029,-0.043,0.017,-0.029,102.0,103.0,101.0,13.4,1505.2,327.0,-0.7,1.8,2470.971,13.29,0.046,291.6
2022-08-05T03:34:03,42.805,6.029,-0.021,0.021,-0.014,102.0,103.0,101.0,13.3,1505.2,330.7,-0.7,1.8,2470.964,13.29,0.029,315.0
2022-08-05T03:37:03,42.805,6.029,-0.033,0.027,-0.017,101.0,103.0,101.0,13.4,1505.2,330.5,-0.7,1.8,2470.945,13.29,0.042,309.3
2022-08-05T03:40:03,42.805,6.029,-0.025,-0.002,-0.036,103.0,102.0,102.0,13.3,1505.2,326.1,-0.7,1.8,2470.914,13.29,0.025,265.4
2022-08-05T03:43:03,42.805,6.029,-0.029,0.002,-0.015,102.0,103.0,102.0,13.3,1505.2,331.8,-0.8,1.8,2470.95,13.29,0.029,273.9
2022-08-05T03:46:03,42.805,6.029,0.009,0.005,-0.053,104.0,103.0,101.0,13.4,1505.2,325.5,-0.7,1.8,2470.937,13.29,0.01,60.9
2022-08-05T03:49:03,42.805,6.029,-0.062,0.026,-0.012,103.0,103.0,101.0,13.3,1505.2,320.7,-0.7,1.8,2470.932,13.29,0.067,292.7
2022-08-05T03:52:03,42.805,6.029,-0.046,0.017,-0.031,103.0,104.0,100.0,13.4,1505.2,323.9,-0.8,1.8,2470.936,13.29,0.049,290.3
2022-08-05T03:55:03,42.805,6.029,-0.038,0.007,-0.025,102.0,102.0,101.0,13.4,1505.2,333.4,-0.7,1.8,2470.947,13.29,0.038,280.4
2022-08-05T03:58:03,42.805,6.029,-0.059,0.021,-0.035,104.0,101.0,100.0,13.3,1505.2,324.8,-0.8,1.8,2470.9,13.29,0.062,289.6
2022-08-05T04:04:03,42.805,6.029,-0.04,-0.007,-0.008,102.0,102.0,101.0,13.4,1505.2,323.1,-0.7,1.8,2470.979,13.28,0.04,260.1
2022-08-05T04:07:03,42.805,6.029,-0.041,0.01,-0.043,102.0,101.0,102.0,13.4,1505.2,321.3,-0.8,1.8,2470.959,13.28,0.042,283.7
2022-08-05T04:10:03,42.805,6.029,-0.033,0.019,-0.033,103.0,101.0,101.0,13.4,1505.2,334.2,-0.8,1.8,2470.955,13.28,0.038,299.9
2022-08-05T04:13:03,42.805,6.029,-0.048,-0.021,-0.058,102.0,102.0,101.0,13.3,1505.2,318.6,-0.8,1.8,2470.935,13.28,0.052,246.4
2022-08-05T04:16:03,42.805,6.029,-0.02,0.012,-0.014,103.0,103.0,100.0,13.4,1505.2,331.1,-0.8,1.8,2470.943,13.28,0.023,301.0
2022-08-05T04:19:03,42.805,6.029,-0.049,0.035,-0.017,102.0,102.0,101.0,13.3,1505.2,323.2,-0.8,1.8,2470.952,13.28,0.06,305.5
2022-08-05T04:22:03,42.805,6.029,-0.053,0.004,0.001,103.0,102.0,101.0,13.3,1505.2,325.6,-0.8,1.8,2470.918,13.29,0.053,274.3
2022-08-05T04:25:03,42.805,6.029,-0.044,0.01,-0.028,103.0,102.0,100.0,13.4,1505.2,332.9,-0.7,1.8,2470.931,13.29,0.045,282.8
2022-08-05T04:28:03,42.805,6.029,-0.024,0.049,0.013,103.0,102.0,101.0,13.4,1505.2,329.0,-0.8,1.8,2470.923,13.29,0.054,333.9
2022-08-05T04:31:03,42.805,6.029,-0.032,-0.001,-0.065,103.0,103.0,101.0,13.4,1505.2,318.3,-0.8,1.8,2470.954,13.29,0.032,268.2
2022-08-05T04:34:03,42.805,6.029,-0.045,0.022,-0.007,102.0,103.0,101.0,13.3,1505.2,330.7,-0.8,1.8,2470.913,13.29,0.05,296.1
2022-08-05T04:37:03,42.805,6.029,-0.019,0.012,-0.016,103.0,102.0,101.0,13.4,1505.2,329.5,-0.8,1.8,2470.93,13.29,0.022,302.3
2022-08-05T04:40:03,42.805,6.029,-0.052,0.013,-0.043,103.0,101.0,102.0,13.4,1505.2,331.8,-0.8,1.8,2470.946,13.29,0.053,284.0
2022-08-05T04:43:03,42.805,6.029,-0.031,0.002,-0.032,102.0,103.0,101.0,13.4,1505.2,320.6,-0.8,1.8,2470.926,13.29,0.031,273.7
2022-08-05T04:46:03,42.805,6.029,-0.052,0.025,-0.01,105.0,103.0,101.0,13.4,1505.2,320.2,-0.8,1.8,2470.908,13.29,0.057,295.7
2022-08-05T04:49:03,42.805,6.029,-0.043,0.004,-0.024,103.0,101.0,100.0,13.3,1505.2,318.5,-0.7,1.8,2470.917,13.29,0.043,275.3
2022-08-05T04:52:03,42.805,6.029,-0.036,0.016,-0.005,103.0,101.0,101.0,13.4,1505.2,321.1,-0.7,1.8,2470.917,13.29,0.039,294.0
2022-08-05T04:55:03,42.805,6.029,-0.046,0.018,-0.029,103.0,102.0,101.0,13.4,1505.2,322.3,-0.7,1.9,2470.928,13.29,0.049,291.4
2022-08-05T04:58:03,42.805,6.029,-0.038,0.015,-0.017,102.0,103.0,101.0,13.4,1505.2,323.6,-0.8,1.8,2470.908,13.29,0.04,291.5
2022-08-05T05:04:03,42.805,6.029,-0.025,-0.005,-0.036,102.0,103.0,101.0,13.4,1505.2,320.3,-0.8,1.8,2470.974,13.28,0.025,258.7
2022-08-05T05:07:03,42.805,6.029,-0.03,-0.001,-0.025,103.0,104.0,101.0,13.4,1505.2,320.2,-0.7,1.8,2470.944,13.28,0.03,268.1
2022-08-05T05:10:03,42.805,6.029,-0.02,0.001,-0.021,102.0,102.0,101.0,13.4,1505.2,325.5,-0.8,1.8,2470.933,13.28,0.02,272.9
2022-08-05T05:13:03,42.805,6.029,-0.039,0.0,-0.065,102.0,102.0,100.0,13.3,1505.2,322.4,-0.7,1.8,2470.935,13.28,0.039,270.0
2022-08-05T05:16:03,42.805,6.029,-0.05,0.023,-0.004,102.0,102.0,101.0,13.3,1505.2,322.0,-0.7,1.8,2470.885,13.28,0.055,294.7
2022-08-05T05:19:03,42.805,6.029,-0.029,0.023,-0.018,104.0,101.0,101.0,13.4,1505.2,322.4,-0.8,1.9,2470.949,13.29,0.037,308.4
2022-08-05T05:22:03,42.805,6.029,-0.034,0.03,0.003,105.0,103.0,103.0,13.4,1505.2,328.2,-0.8,1.8,2470.938,13.29,0.045,311.4
2022-08-05T05:25:03,42.805,6.029,-0.052,-0.021,-0.045,103.0,101.0,101.0,13.4,1505.2,319.5,-0.7,1.8,2470.889,13.29,0.056,248.0
2022-08-05T05:28:03,42.805,6.029,-0.02,0.017,0.011,102.0,103.0,100.0,13.4,1505.2,332.4,-0.7,1.8,2470.933,13.29,0.026,310.4
2022-08-05T05:31:03,42.805,6.029,-0.057,0.018,-0.025,103.0,102.0,101.0,13.4,1505.2,324.0,-0.8,1.8,2470.919,13.29,0.059,287.5
2022-08-05T05:34:03,42.805,6.029,-0.048,-0.003,-0.019,101.0,103.0,101.0,13.4,1505.2,318.2,-0.8,1.8,2470.942,13.29,0.048,266.4
2022-08-05T05:37:03,42.805,6.029,-0.018,0.002,-0.018,102.0,103.0,100.0,13.4,1505.2,328.8,-0.7,1.8,2470.904,13.29,0.018,276.3
2022-08-05T05:40:03,42.805,6.029,-0.056,0.011,-0.02,102.0,103.0,101.0,13.4,1505.2,322.4,-0.8,1.8,2470.894,13.29,0.057,281.1
2022-08-05T05:43:03,42.805,6.029,-0.037,0.028,-0.04,103.0,103.0,100.0,13.4,1505.2,328.2,-0.8,1.8,2470.935,13.29,0.046,307.1
2022-08-05T05:46:03,42.805,6.029,0.001,0.004,-0.009,102.0,103.0,101.0,13.4,1505.2,327.9,-0.8,1.8,2470.868,13.29,0.004,14.0
2022-08-05T05:49:03,42.805,6.029,-0.042,0.016,-0.024,102.0,103.0,101.0,13.3,1505.2,328.7,-0.8,1.8,2470.952,13.29,0.044,290.9
2022-08-05T05:52:03,42.805,6.029,-0.047,0.026,-0.008,103.0,101.0,100.0,13.3,1505.2,318.5,-0.8,1.8,2470.868,13.29,0.053,298.9
2022-08-05T05:55:03,42.805,6.029,-0.023,0.002,-0.027,104.0,102.0,100.0,13.4,1505.2,327.6,-0.7,1.8,2470.874,13.29,0.023,275.0
2022-08-05T05:58:03,42.805,6.029,-0.034,0.024,-0.05,102.0,103.0,101.0,13.3,1505.2,332.3,-0.7,1.8,2470.879,13.29,0.041,305.2
2022-08-05T06:04:03,42.805,6.029,-0.022,-0.021,-0.061,103.0,103.0,100.0,13.3,1505.2,329.5,-0.8,1.8,2470.959,13.28,0.03,226.3
2022-08-05T06:07:03,42.805,6.029,-0.033,-0.004,-0.009,101.0,103.0,102.0,13.3,1505.2,323.8,-0.8,1.8,2470.931,13.28,0.033,263.1
2022-08-05T06:10:03,42.805,6.029,-0.034,-0.006,-0.036,103.0,104.0,100.0,13.4,1505.2,323.8,-0.7,1.8,2470.901,13.28,0.034,260.0
2022-08-05T06:13:03,42.805,6.029,-0.034,0.005,-0.004,102.0,102.0,100.0,13.3,1505.2,328.0,-0.7,1.8,2470.912,13.28,0.034,278.4
2022-08-05T06:16:03,42.805,6.029,-0.029,0.005,-0.021,102.0,103.0,100.0,13.4,1505.2,320.3,-0.8,1.8,2470.929,13.29,0.029,279.8
2022-08-05T06:19:03,42.805,6.029,-0.038,0.004,-0.001,105.0,103.0,102.0,13.4,1505.2,322.9,-0.8,1.8,2470.898,13.29,0.038,276.0
2022-08-05T06:22:03,42.805,6.029,-0.048,0.008,-0.029,103.0,101.0,100.0,13.3,1505.2,332.4,-0.8,1.8,2470.868,13.29,0.048,279.5
2022-08-05T06:25:03,42.805,6.029,-0.047,0.026,-0.009,103.0,102.0,101.0,13.4,1505.2,323.5,-0.8,1.8,2470.871,13.29,0.053,298.9
2022-08-05T06:28:03,42.805,6.029,-0.044,0.028,-0.006,102.0,102.0,101.0,13.4,1505.2,331.9,-0.8,1.8,2470.863,13.29,0.052,302.5
2022-08-05T06:31:03,42.805,6.029,-0.026,-0.013,-0.033,102.0,102.0,101.0,13.4,1505.2,321.5,-0.8,1.8,2470.876,13.29,0.029,243.4
2022-08-05T06:34:03,42.805,6.029,-0.005,0.003,-0.029,103.0,103.0,101.0,13.4,1505.2,328.1,-0.8,1.8,2470.909,13.29,0.005,301.0
2022-08-05T06:37:03,42.805,6.029,-0.013,-0.001,-0.027,103.0,102.0,100.0,13.4,1505.2,328.7,-0.8,1.8,2470.864,13.29,0.013,265.6
2022-08-05T06:40:03,42.805,6.029,-0.026,0.016,-0.016,102.0,103.0,100.0,13.4,1505.2,322.2,-0.7,1.8,2470.891,13.29,0.03,301.6
2022-08-05T06:43:03,42.805,6.029,-0.032,0.006,-0.036,102.0,102.0,101.0,13.4,1505.2,325.7,-0.8,1.8,2470.888,13.29,0.032,280.6
2022-08-05T06:46:03,42.805,6.029,-0.056,-0.002,-0.067,102.0,101.0,101.0,13.3,1505.2,326.1,-0.8,1.8,2470.906,13.29,0.056,268.0
2022-08-05T06:49:03,42.805,6.029,-0.055,0.004,-0.031,101.0,102.0,101.0,13.4,1505.2,322.1,-0.7,1.8,2470.857,13.29,0.055,274.2
2022-08-05T06:52:03,42.805,6.029,-0.056,-0.007,-0.052,101.0,101.0,101.0,13.4,1505.2,321.2,-0.7,1.8,2470.92,13.29,0.056,262.9
2022-08-05T06:55:03,42.805,6.029,-0.042,0.03,-0.026,101.0,102.0,100.0,13.3,1505.2,327.0,-0.8,1.8,2470.864,13.29,0.051,305.5
2022-08-05T06:58:03,42.805,6.029,-0.047,0.007,-0.016,102.0,103.0,101.0,13.3,1505.2,329.5,-0.8,1.8,2470.863,13.29,0.047,278.5
2022-08-05T07:04:03,42.805,6.029,-0.034,0.0,-0.016,102.0,102.0,103.0,13.4,1505.2,322.6,-0.8,1.8,2470.926,13.28,0.034,270.0
2022-08-05T07:07:03,42.805,6.029,-0.026,-0.016,-0.018,101.0,101.0,101.0,13.4,1505.2,320.6,-0.8,1.9,2470.937,13.28,0.03,238.4
2022-08-05T07:10:03,42.805,6.029,-0.046,0.017,-0.02,101.0,103.0,101.0,13.4,1505.2,321.8,-0.7,1.8,2470.94,13.28,0.049,290.3
2022-08-05T07:13:03,42.805,6.029,-0.018,0.013,-0.024,102.0,102.0,101.0,13.4,1505.2,325.8,-0.8,1.8,2470.924,13.28,0.022,305.8
2022-08-05T07:16:03,42.805,6.029,-0.041,0.021,-0.037,103.0,102.0,100.0,13.4,1505.2,331.5,-0.8,1.9,2470.921,13.29,0.046,297.1
2022-08-05T07:19:03,42.805,6.029,-0.019,0.004,-0.023,102.0,101.0,102.0,13.3,1505.2,331.5,-0.7,1.8,2470.905,13.29,0.019,281.9
2022-08-05T07:22:03,42.805,6.029,-0.024,0.017,0.01,103.0,103.0,101.0,13.4,1505.2,322.9,-0.8,1.8,2470.875,13.29,0.029,305.3
2022-08-05T07:25:03,42.805,6.029,-0.071,-0.01,-0.032,103.0,102.0,100.0,13.3,1505.2,323.6,-0.8,1.8,2470.892,13.29,0.071,262.0
2022-08-05T07:28:03,42.805,6.029,-0.025,-0.012,-0.026,102.0,104.0,101.0,13.4,1505.2,322.1,-0.8,1.8,2470.884,13.29,0.027,244.4
2022-08-05T07:31:03,42.805,6.029,-0.017,0.008,-0.015,101.0,103.0,100.0,13.4,1505.2,328.7,-0.8,1.9,2470.929,13.29,0.018,295.2
2022-08-05T07:34:03,42.805,6.029,-0.031,-0.007,-0.001,103.0,101.0,101.0,13.4,1505.2,322.0,-0.7,1.8,2470.914,13.29,0.031,257.3
2022-08-05T07:37:03,42.805,6.029,-0.045,0.001,-0.052,103.0,102.0,101.0,13.4,1505.2,322.8,-0.7,1.8,2470.884,13.29,0.045,271.3
2022-08-05T07:40:03,42.805,6.029,-0.025,0.003,-0.016,103.0,101.0,100.0,13.4,1505.2,322.4,-0.8,1.8,2470.902,13.29,0.025,276.8
2022-08-05T07:43:03,42.805,6.029,-0.035,0.006,-0.03,101.0,102.0,100.0,13.3,1505.2,326.9,-0.8,1.8,2470.865,13.29,0.035,279.7
2022-08-05T07:46:03,42.805,6.029,-0.034,-0.01,-0.034,102.0,102.0,102.0,13.4,1505.2,321.5,-0.7,1.8,2470.912,13.29,0.035,253.6
2022-08-05T07:49:03,42.805,6.029,-0.023,-0.001,-0.014,102.0,102.0,101.0,13.3,1505.2,319.6,-0.8,1.8,2470.887,13.29,0.023,267.5
2022-08-05T07:52:03,42.805,6.029,-0.04,0.005,-0.03,101.0,101.0,102.0,13.3,1505.2,322.8,-0.8,1.8,2470.896,13.29,0.04,277.1
2022-08-05T07:55:03,42.805,6.029,-0.034,0.009,-0.018,102.0,101.0,102.0,13.4,1505.2,326.1,-0.8,1.8,2470.901,13.29,0.035,284.8
2022-08-05T07:58:03,42.805,6.029,-0.034,-0.002,-0.029,101.0,103.0,103.0,13.4,1505.2,319.7,-0.7,1.8,2470.888,13.29,0.034,266.6
2022-08-05T08:04:03,42.805,6.029,-0.014,0.001,-0.013,103.0,102.0,101.0,13.4,1505.2,332.1,-0.8,1.8,2470.933,13.28,0.014,274.1
2022-08-05T08:07:03,42.805,6.029,-0.044,0.005,-0.019,102.0,102.0,101.0,13.4,1505.2,318.8,-0.8,1.8,2470.919,13.28,0.044,276.5
2022-08-05T08:10:03,42.805,6.029,-0.018,-0.009,-0.013,102.0,103.0,101.0,13.4,1505.2,318.5,-0.8,1.9,2470.897,13.28,0.02,243.4
2022-08-05T08:13:03,42.805,6.029,-0.031,0.007,-0.011,102.0,103.0,101.0,13.3,1505.2,320.3,-0.8,1.8,2470.914,13.29,0.031,282.7
2022-08-05T08:16:03,42.805,6.029,-0.038,0.007,-0.027,103.0,102.0,100.0,13.3,1505.2,326.4,-0.7,1.8,2470.915,13.29,0.038,280.4
2022-08-05T08:19:03,42.805,6.029,-0.053,0.029,-0.019,102.0,103.0,100.0,13.3,1505.2,326.1,-0.8,1.8,2470.94,13.29,0.06,298.7
2022-08-05T08:22:03,42.805,6.029,-0.027,-0.006,-0.025,102.0,102.0,101.0,13.4,1505.2,329.6,-0.8,1.9,2470.94,13.29,0.027,257.5
2022-08-05T08:25:03,42.805,6.029,-0.008,0.012,-0.016,102.0,101.0,100.0,13.4,1505.2,329.6,-0.8,1.8,2470.916,13.29,0.014,326.3
2022-08-05T08:28:03,42.805,6.029,-0.035,0.01,-0.039,102.0,102.0,101.0,13.4,1505.2,328.2,-0.8,1.8,2470.887,13.29,0.036,285.9
2022-08-05T08:31:03,42.805,6.029,-0.031,0.013,-0.006,101.0,103.0,101.0,13.4,1505.2,323.0,-0.7,1.8,2470.859,13.29,0.033,292.7
2022-08-05T08:34:03,42.805,6.029,-0.033,0.005,-0.022,103.0,102.0,102.0,13.4,1505.2,324.3,-0.8,1.8,2470.925,13.29,0.033,278.6
2022-08-05T08:37:03,42.805,6.029,-0.018,-0.006,-0.024,102.0,102.0,101.0,13.4,1505.2,330.3,-0.7,1.8,2470.931,13.29,0.018,251.6
2022-08-05T08:40:03,42.805,6.029,-0.023,0.001,-0.032,102.0,103.0,99.0,13.4,1505.2,330.6,-0.8,1.8,2470.942,13.29,0.023,272.5
2022-08-05T08:43:03,42.805,6.029,-0.057,0.003,-0.052,101.0,102.0,101.0,13.4,1505.2,324.2,-0.8,1.8,2470.885,13.29,0.057,273.0
2022-08-05T08:46:03,42.805,6.029,-0.061,0.015,-0.031,102.0,102.0,101.0,13.4,1505.2,319.9,-0.7,1.8,2470.909,13.29,0.062,283.8
2022-08-05T08:49:03,42.805,6.029,-0.056,0.004,-0.066,102.0,103.0,100.0,13.3,1505.2,329.3,-0.8,1.9,2470.922,13.29,0.056,274.1
2022-08-05T08:52:03,42.805,6.029,-0.009,-0.001,-0.032,103.0,101.0,101.0,13.4,1505.2,319.6,-0.7,1.8,2470.925,13.29,0.009,263.7
2022-08-05T08:55:03,42.805,6.029,-0.028,0.02,-0.002,103.0,102.0,101.0,13.4,1505.2,328.7,-0.8,1.8,2470.919,13.29,0.034,305.5
2022-08-05T08:58:03,42.805,6.029,-0.044,0.014,-0.048,103.0,102.0,101.0,13.3,1505.2,328.7,-0.7,1.8,2470.914,13.29,0.046,287.6
2022-08-05T09:04:03,42.805,6.029,-0.044,0.011,-0.02,102.0,102.0,101.0,13.4,1505.2,325.6,-0.8,1.8,2470.954,13.28,0.045,284.0
2022-08-05T09:07:03,42.805,6.029,-0.056,-0.006,-0.052,102.0,101.0,102.0,13.4,1505.2,321.3,-0.8,1.8,2470.965,13.28,0.056,263.9
2022-08-05T09:10:03,42.805,6.029,-0.013,-0.007,-0.039,102.0,102.0,100.0,13.4,1505.2,321.7,-0.8,1.8,2470.97,13.28,0.014,241.7
2022-08-05T09:13:03,42.805,6.029,-0.04,0.015,-0.024,104.0,101.0,102.0,13.4,1505.2,319.6,-0.8,1.8,2470.962,13.28,0.042,290.6
2022-08-05T09:16:03,42.805,6.029,-0.03,0.007,-0.021,103.0,102.0,100.0,13.3,1505.2,326.6,-0.8,1.8,2470.926,13.29,0.03,283.1
2022-08-05T09:19:03,42.805,6.029,-0.027,0.021,-0.024,102.0,102.0,101.0,13.4,1505.2,322.3,-0.7,1.8,2470.929,13.29,0.034,307.9
2022-08-05T09:22:03,42.805,6.029,-0.049,0.002,-0.031,103.0,102.0,100.0,13.3,1505.2,325.6,-0.8,1.8,2470.927,13.29,0.049,272.3
2022-08-05T09:25:03,42.805,6.029,-0.054,0.019,-0.021,102.0,103.0,101.0,13.4,1505.2,318.8,-0.8,1.8,2470.946,13.29,0.057,289.4
2022-08-05T09:28:03,42.805,6.029,-0.042,0.013,-0.014,104.0,103.0,100.0,13.3,1505.2,323.9,-0.8,1.8,2470.924,13.29,0.043,287.2
2022-08-05T09:31:03,42.805,6.029,-0.035,0.021,-0.025,102.0,102.0,101.0,13.3,1505.2,329.0,-0.8,1.8,2470.935,13.29,0.04,301.0
2022-08-05T09:34:03,42.805,6.029,-0.059,-0.009,-0.068,103.0,103.0,101.0,13.3,1505.2,324.2,-0.8,1.8,2470.939,13.29,0.059,261.3
2022-08-05T09:37:03,42.805,6.029,-0.036,0.003,-0.013,103.0,102.0,100.0,13.3,1505.2,323.8,-0.8,1.8,2470.897,13.29,0.036,274.8
2022-08-05T09:40:03,42.805,6.029,-0.024,0.016,-0.051,103.0,102.0,101.0,13.4,1505.2,329.5,-0.8,1.8,2470.924,13.29,0.028,303.7
2022-08-05T09:43:03,42.805,6.029,-0.037,0.001,-0.024,102.0,101.0,101.0,13.4,1505.2,333.4,-0.8,1.8,2470.89,13.29,0.037,271.5
2022-08-05T09:46:03,42.805,6.029,-0.038,0.001,-0.026,102.0,102.0,101.0,13.4,1505.2,332.1,-0.7,1.8,2470.937,13.29,0.038,271.5
2022-08-05T09:49:03,42.805,6.029,-0.029,0.014,-0.03,103.0,102.0,100.0,13.4,1505.2,329.8,-0.7,1.8,2470.929,13.29,0.032,295.8
2022-08-05T09:52:03,42.805,6.029,-0.042,0.002,-0.03,102.0,103.0,100.0,13.4,1505.2,332.9,-0.7,1.8,2470.965,13.29,0.042,272.7